Time,TemperatureF,DewpointF,PressureIn,WindDirection,WindDirectionDegrees,WindSpeedMPH,WindSpeedGustMPH,Humidity,HourlyPrecipIn,Conditions,Clouds,dailyrainin,SolarRadiationWatts/m^2,SoftwareType,DateUTC
2013-02-07 00:00:00,24.5,3.7,30.23,WNW,300,2.0,4.0,40,0.00,,OVC021,0.00,0.00,VWS V14.01,2013-02-07 05:00:00,
2013-02-07 00:05:00,24.4,3.6,30.23,NW,307,4.0,4.0,40,0.00,,OVC021,0.00,0.00,VWS V14.01,2013-02-07 05:05:00,
2013-02-07 00:10:00,24.2,3.9,30.23,NW,307,2.0,4.0,41,0.00,,OVC021,0.00,0.00,VWS V14.01,2013-02-07 05:10:00,
2013-02-07 00:15:00,24.1,3.8,30.23,NW,319,3.0,5.0,41,0.00,,OVC021,0.00,0.00,VWS V14.01,2013-02-07 05:15:00,
2013-02-07 00:20:00,24.0,3.7,30.23,NW,306,3.0,5.0,41,0.00,,OVC021,0.00,0.00,VWS V14.01,2013-02-07 05:20:00,
2013-02-07 00:25:00,23.9,4.2,30.23,WNW,288,3.0,5.0,42,0.00,,OVC021,0.00,0.00,VWS V14.01,2013-02-07 05:25:00,
2013-02-07 00:30:00,23.7,4.0,30.23,WNW,296,1.0,4.0,42,0.00,,OVC021,0.00,0.00,VWS V14.01,2013-02-07 05:30:00,
2013-02-07 00:35:00,23.5,3.8,30.23,NW,311,1.0,6.0,42,0.00,,OVC021,0.00,0.00,VWS V14.01,2013-02-07 05:35:00,
2013-02-07 00:40:00,23.4,3.7,30.23,NW,311,3.0,4.0,42,0.00,,OVC021,0.00,0.00,VWS V14.01,2013-02-07 05:40:00,
2013-02-07 00:45:00,23.3,4.1,30.24,NNW,327,3.0,7.0,43,0.00,,OVC021,0.00,0.00,VWS V14.01,2013-02-07 05:45:00,
2013-02-07 00:50:00,23.3,4.1,30.24,NNW,329,2.0,6.0,43,0.00,,OVC021,0.00,0.00,VWS V14.01,2013-02-07 05:50:00,
2013-02-07 00:55:00,23.2,4.0,30.25,NW,317,3.0,4.0,43,0.00,,OVC021,0.00,0.00,VWS V14.01,2013-02-07 05:55:00,
2013-02-07 01:00:00,23.1,4.4,30.24,NNW,334,2.0,4.0,44,0.00,,OVC021,0.00,0.00,VWS V14.01,2013-02-07 06:00:00,
2013-02-07 01:05:00,23.0,4.3,30.25,NNW,334,3.0,4.0,44,0.00,,OVC021,0.00,0.00,VWS V14.01,2013-02-07 06:05:00,
2013-02-07 01:10:00,22.9,4.3,30.25,NNW,344,4.0,6.0,44,0.00,,OVC021,0.00,0.00,VWS V14.01,2013-02-07 06:10:00,
2013-02-07 01:15:00,22.9,3.8,30.25,NW,322,7.0,11.0,43,0.00,,OVC021,0.00,0.00,VWS V14.01,2013-02-07 06:15:00,
2013-02-07 01:20:00,22.8,3.7,30.25,NW,320,5.0,10.0,43,0.00,,OVC021,0.00,0.00,VWS V14.01,2013-02-07 06:20:00,
2013-02-07 01:25:00,22.7,3.6,30.25,NW,313,3.0,7.0,43,0.00,,OVC021,0.00,0.00,VWS V14.01,2013-02-07 06:25:00,
2013-02-07 01:30:00,22.5,3.9,30.25,NW,313,5.0,7.0,44,0.00,,OVC021,0.00,0.00,VWS V14.01,2013-02-07 06:30:00,
2013-02-07 01:35:00,22.4,3.8,30.25,NNW,338,2.0,7.0,44,0.00,,OVC021,0.00,0.00,VWS V14.01,2013-02-07 06:35:00,
2013-02-07 01:40:00,22.2,3.6,30.26,NW,316,3.0,7.0,44,0.00,,OVC021,0.00,0.00,VWS V14.01,2013-02-07 06:40:00,
2013-02-07 01:45:00,22.2,4.1,30.26,NW,312,2.0,4.0,45,0.00,,OVC021,0.00,0.00,VWS V14.01,2013-02-07 06:45:00,
2013-02-07 01:50:00,22.0,3.9,30.26,NW,319,2.0,4.0,45,0.00,,OVC021,0.00,0.00,VWS V14.01,2013-02-07 06:50:00,
2013-02-07 01:55:00,21.9,3.8,30.27,NW,322,3.0,6.0,45,0.00,,OVC021,0.00,0.00,VWS V14.01,2013-02-07 06:55:00,
2013-02-07 02:00:00,21.8,4.2,30.27,NW,321,2.0,4.0,46,0.00,,OVC021,0.00,0.00,VWS V14.01,2013-02-07 07:00:00,
2013-02-07 02:05:00,21.7,4.1,30.27,North,360,2.0,5.0,46,0.00,,OVC021,0.00,0.00,VWS V14.01,2013-02-07 07:05:00,
2013-02-07 02:10:00,21.5,3.5,30.27,NNE,13,4.0,6.0,45,0.00,,OVC021,0.00,0.00,VWS V14.01,2013-02-07 07:10:00,
2013-02-07 02:15:00,21.3,3.3,30.28,NNE,28,1.0,4.0,45,0.00,,OVC021,0.00,0.00,VWS V14.01,2013-02-07 07:15:00,
2013-02-07 02:20:00,21.1,3.1,30.28,North,5,2.0,6.0,45,0.00,,OVC021,0.00,0.00,VWS V14.01,2013-02-07 07:20:00,
2013-02-07 02:25:00,20.9,2.9,30.28,North,355,2.0,4.0,45,0.00,,OVC021,0.00,0.00,VWS V14.01,2013-02-07 07:25:00,
2013-02-07 02:30:00,20.7,2.2,30.28,NNE,13,6.0,9.0,44,0.00,,OVC021,0.00,0.00,VWS V14.01,2013-02-07 07:30:00,
2013-02-07 02:35:00,20.5,1.6,30.28,NNE,14,5.0,7.0,43,0.00,,OVC021,0.00,0.00,VWS V14.01,2013-02-07 07:35:00,
2013-02-07 02:40:00,20.3,1.4,30.28,NNE,19,5.0,9.0,43,0.00,,OVC021,0.00,0.00,VWS V14.01,2013-02-07 07:40:00,
2013-02-07 02:45:00,20.2,1.3,30.28,NE,46,5.0,8.0,43,0.00,,OVC021,0.00,0.00,VWS V14.01,2013-02-07 07:45:00,
2013-02-07 02:50:00,20.0,1.1,30.28,NNW,348,4.0,8.0,43,0.00,,OVC021,0.00,0.00,VWS V14.01,2013-02-07 07:50:00,
2013-02-07 02:55:00,19.8,0.9,30.28,NNE,13,1.0,7.0,43,0.00,,OVC021,0.00,0.00,VWS V14.01,2013-02-07 07:55:00,
2013-02-07 03:00:00,19.6,0.8,30.28,NNE,12,1.0,3.0,43,0.00,,OVC021,0.00,0.00,VWS V14.01,2013-02-07 08:00:00,
2013-02-07 03:05:00,19.5,0.7,30.29,NNE,13,0.0,4.0,43,0.00,,OVC021,0.00,0.00,VWS V14.01,2013-02-07 08:05:00,
2013-02-07 03:10:00,19.4,0.6,30.29,NNE,13,0.0,2.0,43,0.00,,OVC021,0.00,0.00,VWS V14.01,2013-02-07 08:10:00,
2013-02-07 03:15:00,19.3,0.5,30.30,NNE,14,0.0,1.0,43,0.00,,OVC021,0.00,0.00,VWS V14.01,2013-02-07 08:15:00,
2013-02-07 03:20:00,19.1,0.8,30.30,NNE,14,1.0,2.0,44,0.00,,OVC021,0.00,0.00,VWS V14.01,2013-02-07 08:20:00,
2013-02-07 03:25:00,19.0,0.2,30.30,NNE,13,2.0,5.0,43,0.00,,OVC021,0.00,0.00,VWS V14.01,2013-02-07 08:25:00,
2013-02-07 03:30:00,19.0,0.2,30.31,NNE,13,3.0,4.0,43,0.00,,OVC021,0.00,0.00,VWS V14.01,2013-02-07 08:30:00,
2013-02-07 03:35:00,18.9,0.1,30.31,NNE,14,0.0,4.0,43,0.00,,OVC021,0.00,0.00,VWS V14.01,2013-02-07 08:35:00,
2013-02-07 03:40:00,18.8,0.0,30.31,NNE,13,3.0,4.0,43,0.00,,OVC021,0.00,0.00,VWS V14.01,2013-02-07 08:40:00,
2013-02-07 03:45:00,18.7,-0.1,30.31,NNE,13,1.0,3.0,43,0.00,,OVC021,0.00,0.00,VWS V14.01,2013-02-07 08:45:00,
2013-02-07 03:50:00,18.6,0.3,30.32,NNE,13,2.0,3.0,44,0.00,,OVC021,0.00,0.00,VWS V14.01,2013-02-07 08:50:00,
2013-02-07 03:55:00,18.5,0.2,30.32,NNE,13,0.0,3.0,44,0.00,,OVC021,0.00,0.00,VWS V14.01,2013-02-07 08:55:00,
2013-02-07 04:00:00,18.3,0.5,30.33,NNE,13,1.0,2.0,45,0.00,,OVC021,0.00,0.00,VWS V14.01,2013-02-07 09:00:00,
2013-02-07 04:05:00,18.2,0.4,30.33,NNE,13,0.0,2.0,45,0.00,,OVC021,0.00,0.00,VWS V14.01,2013-02-07 09:05:00,
2013-02-07 04:10:00,18.0,0.2,30.33,NNE,13,1.0,1.0,45,0.00,,OVC021,0.00,0.00,VWS V14.01,2013-02-07 09:10:00,
2013-02-07 04:15:00,17.9,0.2,30.33,NNE,13,0.0,2.0,45,0.00,,OVC021,0.00,0.00,VWS V14.01,2013-02-07 09:15:00,
2013-02-07 04:20:00,17.8,-0.4,30.34,NNE,13,0.0,2.0,44,0.00,,OVC021,0.00,0.00,VWS V14.01,2013-02-07 09:20:00,
2013-02-07 04:25:00,17.7,0.0,30.34,NNE,13,1.0,1.0,45,0.00,,OVC021,0.00,0.00,VWS V14.01,2013-02-07 09:25:00,
2013-02-07 04:30:00,17.5,-0.2,30.34,NNE,14,0.0,2.0,45,0.00,,OVC021,0.00,0.00,VWS V14.01,2013-02-07 09:30:00,
2013-02-07 04:35:00,17.4,-0.3,30.34,NNE,13,0.0,1.0,45,0.00,,OVC021,0.00,0.00,VWS V14.01,2013-02-07 09:35:00,
2013-02-07 04:40:00,17.3,-0.4,30.34,NNE,13,0.0,3.0,45,0.00,,OVC021,0.00,0.00,VWS V14.01,2013-02-07 09:40:00,
2013-02-07 04:45:00,17.3,-0.4,30.34,NNE,13,0.0,2.0,45,0.00,,OVC021,0.00,0.00,VWS V14.01,2013-02-07 09:45:00,
2013-02-07 04:50:00,17.2,-1.0,30.33,NNE,13,1.0,3.0,44,0.00,,OVC021,0.00,0.00,VWS V14.01,2013-02-07 09:50:00,
2013-02-07 04:55:00,17.1,-0.6,30.33,NNE,13,3.0,3.0,45,0.00,,OVC021,0.00,0.00,VWS V14.01,2013-02-07 09:55:00,
2013-02-07 05:00:00,17.1,-0.6,30.34,NNE,13,0.0,3.0,45,0.00,,OVC021,0.00,0.00,VWS V14.01,2013-02-07 10:00:00,
2013-02-07 05:05:00,17.1,-0.6,30.34,NNE,13,0.0,2.0,45,0.00,,OVC021,0.00,0.00,VWS V14.01,2013-02-07 10:05:00,
2013-02-07 05:10:00,17.0,-0.7,30.34,NNE,13,0.0,1.0,45,0.00,,OVC021,0.00,0.00,VWS V14.01,2013-02-07 10:10:00,
2013-02-07 05:15:00,16.9,-0.8,30.34,North,9,2.0,4.0,45,0.00,,OVC021,0.00,0.00,VWS V14.01,2013-02-07 10:15:00,
2013-02-07 05:20:00,16.8,-0.9,30.34,North,9,2.0,4.0,45,0.00,,OVC021,0.00,0.00,VWS V14.01,2013-02-07 10:20:00,
2013-02-07 05:25:00,16.7,-0.5,30.35,North,5,1.0,3.0,46,0.00,,OVC021,0.00,0.00,VWS V14.01,2013-02-07 10:25:00,
2013-02-07 05:30:00,16.6,-0.6,30.35,North,5,0.0,1.0,46,0.00,,OVC021,0.00,0.00,VWS V14.01,2013-02-07 10:30:00,
2013-02-07 05:35:00,16.4,-0.3,30.35,North,5,3.0,3.0,47,0.00,,OVC021,0.00,0.00,VWS V14.01,2013-02-07 10:35:00,
2013-02-07 05:40:00,16.3,-0.4,30.35,North,5,1.0,3.0,47,0.00,,OVC021,0.00,0.00,VWS V14.01,2013-02-07 10:40:00,
2013-02-07 05:45:00,16.3,-0.4,30.35,North,350,1.0,4.0,47,0.00,,OVC021,0.00,0.00,VWS V14.01,2013-02-07 10:45:00,
2013-02-07 05:50:00,16.2,-0.5,30.35,North,350,0.0,3.0,47,0.00,,OVC021,0.00,0.00,VWS V14.01,2013-02-07 10:50:00,
2013-02-07 05:55:00,16.1,-0.6,30.36,North,351,0.0,2.0,47,0.00,,OVC021,0.00,0.00,VWS V14.01,2013-02-07 10:55:00,
2013-02-07 06:00:00,15.9,-0.3,30.36,North,350,1.0,1.0,48,0.00,,OVC021,0.00,0.00,VWS V14.01,2013-02-07 11:00:00,
2013-02-07 06:03:00,15.8,-0.9,30.36,North,351,0.0,2.0,47,0.00,,OVC021,0.00,0.00,VWS V14.01,2013-02-07 11:03:00,
2013-02-07 06:05:00,15.8,-0.9,30.36,North,350,0.0,2.0,47,0.00,,OVC021,0.00,0.00,VWS V14.01,2013-02-07 11:05:00,
2013-02-07 06:06:00,15.8,-0.4,30.36,North,350,0.0,1.0,48,0.00,,OVC021,0.00,0.00,VWS V14.01,2013-02-07 11:06:00,
2013-02-07 06:10:00,15.7,-0.5,30.36,North,350,0.0,1.0,48,0.00,,OVC021,0.00,0.00,VWS V14.01,2013-02-07 11:10:00,
2013-02-07 06:11:00,15.7,-0.9,30.36,North,351,0.0,1.0,47,0.00,,OVC021,0.00,0.00,VWS V14.01,2013-02-07 11:11:00,
2013-02-07 06:15:00,15.7,-0.9,30.36,North,350,0.0,3.0,47,0.00,,OVC021,0.00,0.00,VWS V14.01,2013-02-07 11:15:00,
2013-02-07 06:16:00,15.7,-0.5,30.36,North,350,1.0,2.0,48,0.00,,OVC021,0.00,0.00,VWS V14.01,2013-02-07 11:16:00,
2013-02-07 06:20:00,15.7,-0.5,30.36,North,350,1.0,3.0,48,0.00,,OVC021,0.00,0.00,VWS V14.01,2013-02-07 11:20:00,
2013-02-07 06:21:00,15.7,-0.5,30.36,North,350,1.0,3.0,48,0.00,,OVC021,0.00,0.00,VWS V14.01,2013-02-07 11:21:00,
2013-02-07 06:25:00,15.7,-0.5,30.37,North,350,1.0,3.0,48,0.00,,OVC021,0.00,0.00,VWS V14.01,2013-02-07 11:25:00,
2013-02-07 06:26:00,15.7,-0.5,30.37,North,351,0.0,2.0,48,0.00,,OVC021,0.00,0.00,VWS V14.01,2013-02-07 11:26:00,
2013-02-07 06:30:00,15.6,-0.6,30.37,North,350,0.0,2.0,48,0.00,,OVC021,0.00,0.00,VWS V14.01,2013-02-07 11:30:00,
2013-02-07 06:31:00,15.6,-0.6,30.37,North,350,0.0,3.0,48,0.00,,OVC021,0.00,0.00,VWS V14.01,2013-02-07 11:31:00,
2013-02-07 06:35:00,15.6,-0.2,30.37,North,350,1.0,3.0,49,0.00,,OVC021,0.00,0.00,VWS V14.01,2013-02-07 11:35:00,
2013-02-07 06:37:00,15.5,-0.7,30.38,North,350,0.0,4.0,48,0.00,,OVC021,0.00,0.00,VWS V14.01,2013-02-07 11:37:00,
2013-02-07 06:40:00,15.6,-0.6,30.38,North,350,0.0,4.0,48,0.00,,OVC021,0.00,0.00,VWS V14.01,2013-02-07 11:40:00,
2013-02-07 06:42:00,15.6,-0.2,30.38,North,351,0.0,1.0,49,0.00,,OVC021,0.00,0.00,VWS V14.01,2013-02-07 11:42:00,
2013-02-07 06:45:00,15.5,-0.2,30.38,North,350,0.0,1.0,49,0.00,,OVC021,0.00,0.00,VWS V14.01,2013-02-07 11:45:00,
2013-02-07 06:47:00,15.4,-0.3,30.38,North,350,0.0,1.0,49,0.00,,OVC021,0.00,0.00,VWS V14.01,2013-02-07 11:47:00,
2013-02-07 06:50:00,15.4,-0.3,30.38,North,350,1.0,1.0,49,0.00,,OVC021,0.00,0.00,VWS V14.01,2013-02-07 11:50:00,
2013-02-07 06:52:00,15.3,-0.4,30.39,North,350,0.0,1.0,49,0.00,,OVC021,0.00,5.00,VWS V14.01,2013-02-07 11:52:00,
2013-02-07 06:55:00,15.3,-0.4,30.38,North,350,0.0,1.0,49,0.00,,OVC021,0.00,5.00,VWS V14.01,2013-02-07 11:55:00,
2013-02-07 06:57:00,15.2,-0.1,30.39,North,350,0.0,1.0,50,0.00,,OVC021,0.00,7.00,VWS V14.01,2013-02-07 11:57:00,
2013-02-07 07:00:00,15.2,-0.1,30.39,North,350,0.0,1.0,50,0.00,,OVC021,0.00,7.00,VWS V14.01,2013-02-07 12:00:00,
2013-02-07 07:02:00,15.2,-0.1,30.39,North,351,2.0,2.0,50,0.00,,OVC021,0.00,9.00,VWS V14.01,2013-02-07 12:02:00,
2013-02-07 07:05:00,15.2,-0.1,30.39,North,350,1.0,2.0,50,0.00,,OVC021,0.00,11.00,VWS V14.01,2013-02-07 12:05:00,
2013-02-07 07:07:00,15.4,0.1,30.39,North,350,1.0,3.0,50,0.00,,OVC021,0.00,16.00,VWS V14.01,2013-02-07 12:07:00,
2013-02-07 07:10:00,15.5,0.2,30.39,North,351,1.0,3.0,50,0.00,,OVC021,0.00,18.00,VWS V14.01,2013-02-07 12:10:00,
2013-02-07 07:12:00,15.8,1.7,30.40,North,350,2.0,3.0,53,0.00,,OVC021,0.00,23.00,VWS V14.01,2013-02-07 12:12:00,
2013-02-07 07:15:00,15.8,1.7,30.40,NNW,327,3.0,3.0,53,0.00,,OVC021,0.00,25.00,VWS V14.01,2013-02-07 12:15:00,
2013-02-07 07:18:00,16.1,2.4,30.40,WNW,284,3.0,4.0,54,0.00,,OVC021,0.00,32.00,VWS V14.01,2013-02-07 12:18:00,
2013-02-07 07:20:00,16.1,2.8,30.40,WNW,285,3.0,4.0,55,0.00,,OVC021,0.00,35.00,VWS V14.01,2013-02-07 12:20:00,
2013-02-07 07:23:00,16.2,2.5,30.40,WNW,283,1.0,4.0,54,0.00,,OVC021,0.00,35.00,VWS V14.01,2013-02-07 12:23:00,
2013-02-07 07:25:00,16.3,2.6,30.40,WNW,282,1.0,4.0,54,0.00,,OVC021,0.00,35.00,VWS V14.01,2013-02-07 12:25:00,
2013-02-07 07:28:00,16.5,2.0,30.40,NW,306,3.0,6.0,52,0.00,,OVC021,0.00,58.00,VWS V14.01,2013-02-07 12:28:00,
2013-02-07 07:30:00,16.5,2.0,30.40,NW,306,4.0,6.0,52,0.00,,OVC021,0.00,58.00,VWS V14.01,2013-02-07 12:30:00,
2013-02-07 07:33:00,16.7,1.7,30.40,WNW,301,4.0,7.0,51,0.00,,OVC021,0.00,65.00,VWS V14.01,2013-02-07 12:33:00,
2013-02-07 07:35:00,16.7,1.7,30.40,NW,305,5.0,7.0,51,0.00,,OVC021,0.00,65.00,VWS V14.01,2013-02-07 12:35:00,
2013-02-07 07:38:00,16.8,2.2,30.41,WNW,302,6.0,6.0,52,0.00,,OVC021,0.00,53.00,VWS V14.01,2013-02-07 12:38:00,
2013-02-07 07:40:00,16.8,2.2,30.41,WNW,302,6.0,6.0,52,0.00,,OVC021,0.00,53.00,VWS V14.01,2013-02-07 12:40:00,
2013-02-07 07:43:00,17.0,2.0,30.41,NW,317,4.0,4.0,51,0.00,,OVC021,0.00,83.00,VWS V14.01,2013-02-07 12:43:00,
2013-02-07 07:45:00,17.0,2.0,30.41,NW,317,4.0,6.0,51,0.00,,OVC021,0.00,83.00,VWS V14.01,2013-02-07 12:45:00,
2013-02-07 07:48:00,17.2,1.3,30.42,NW,319,3.0,6.0,49,0.00,,OVC021,0.00,47.00,VWS V14.01,2013-02-07 12:48:00,
2013-02-07 07:50:00,17.1,1.2,30.42,NW,321,6.0,7.0,49,0.00,,OVC021,0.00,47.00,VWS V14.01,2013-02-07 12:50:00,
2013-02-07 07:53:00,17.2,1.3,30.42,NW,323,6.0,7.0,49,0.00,,OVC021,0.00,44.00,VWS V14.01,2013-02-07 12:53:00,
2013-02-07 07:55:00,17.2,1.3,30.41,NW,315,4.0,9.0,49,0.00,,OVC021,0.00,44.00,VWS V14.01,2013-02-07 12:55:00,
2013-02-07 07:59:00,17.4,1.1,30.42,NW,316,5.0,6.0,48,0.00,,OVC021,0.00,95.00,VWS V14.01,2013-02-07 12:59:00,
2013-02-07 08:00:00,17.4,1.1,30.42,NNW,338,5.0,10.0,48,0.00,,OVC021,0.00,95.00,VWS V14.01,2013-02-07 13:00:00,
2013-02-07 08:04:00,17.8,1.0,30.42,NNW,336,5.0,8.0,47,0.00,,OVC021,0.00,88.00,VWS V14.01,2013-02-07 13:04:00,
2013-02-07 08:05:00,17.8,1.0,30.42,NW,321,8.0,9.0,47,0.00,,OVC021,0.00,81.00,VWS V14.01,2013-02-07 13:05:00,
2013-02-07 08:09:00,17.9,1.5,30.43,NW,316,5.0,7.0,48,0.00,,OVC021,0.00,76.00,VWS V14.01,2013-02-07 13:09:00,
2013-02-07 08:10:00,17.9,1.5,30.43,NW,314,6.0,9.0,48,0.00,,OVC021,0.00,74.00,VWS V14.01,2013-02-07 13:10:00,
2013-02-07 08:14:00,18.0,1.2,30.43,West,279,3.0,4.0,47,0.00,,OVC021,0.00,90.00,VWS V14.01,2013-02-07 13:14:00,
2013-02-07 08:15:00,18.0,1.2,30.43,NW,323,4.0,9.0,47,0.00,,OVC021,0.00,67.00,VWS V14.01,2013-02-07 13:15:00,
2013-02-07 08:19:00,18.0,1.2,30.43,NW,322,5.0,6.0,47,0.00,,OVC021,0.00,83.00,VWS V14.01,2013-02-07 13:19:00,
2013-02-07 08:20:00,18.0,1.2,30.43,WNW,290,5.0,9.0,47,0.00,,OVC021,0.00,70.00,VWS V14.01,2013-02-07 13:20:00,
2013-02-07 08:24:00,18.4,1.5,30.43,WNW,284,6.0,8.0,47,0.00,,OVC021,0.00,255.00,VWS V14.01,2013-02-07 13:24:00,
2013-02-07 08:25:00,18.3,1.5,30.43,WNW,291,7.0,7.0,47,0.00,,OVC021,0.00,241.00,VWS V14.01,2013-02-07 13:25:00,
2013-02-07 08:29:00,18.8,1.5,30.44,NW,318,6.0,8.0,46,0.00,,OVC021,0.00,248.00,VWS V14.01,2013-02-07 13:29:00,
2013-02-07 08:30:00,18.7,1.4,30.43,WNW,290,3.0,9.0,46,0.00,,OVC021,0.00,258.00,VWS V14.01,2013-02-07 13:30:00,
2013-02-07 08:34:00,19.0,1.2,30.44,West,262,6.0,7.0,45,0.00,,OVC021,0.00,248.00,VWS V14.01,2013-02-07 13:34:00,
2013-02-07 08:35:00,19.0,1.6,30.44,WNW,297,5.0,8.0,46,0.00,,OVC021,0.00,237.00,VWS V14.01,2013-02-07 13:35:00,
2013-02-07 08:40:00,19.3,1.9,30.44,NW,310,5.0,7.0,46,0.00,,OVC021,0.00,301.00,VWS V14.01,2013-02-07 13:40:00,
2013-02-07 08:45:00,19.3,0.5,30.43,West,267,5.0,7.0,43,0.00,,OVC021,0.00,214.00,VWS V14.01,2013-02-07 13:45:00,
2013-02-07 08:50:00,19.2,-0.1,30.44,West,280,5.0,11.0,42,0.00,,OVC021,0.00,123.00,VWS V14.01,2013-02-07 13:50:00,
2013-02-07 08:55:00,19.0,0.2,30.44,NW,306,3.0,8.0,43,0.00,,OVC021,0.00,123.00,VWS V14.01,2013-02-07 13:55:00,
2013-02-07 09:00:00,19.2,1.4,30.44,NW,319,3.0,6.0,45,0.00,,OVC021,0.00,149.00,VWS V14.01,2013-02-07 14:00:00,
2013-02-07 09:05:00,19.5,1.1,30.44,NW,317,8.0,10.0,44,0.00,,OVC021,0.00,360.00,VWS V14.01,2013-02-07 14:05:00,
2013-02-07 09:10:00,20.1,1.2,30.45,NW,311,6.0,9.0,43,0.00,,OVC021,0.00,450.00,VWS V14.01,2013-02-07 14:10:00,
2013-02-07 09:15:00,20.4,1.0,30.45,NW,311,6.0,9.0,42,0.00,,OVC021,0.00,422.00,VWS V14.01,2013-02-07 14:15:00,
2013-02-07 09:20:00,20.8,1.3,30.45,NW,323,10.0,10.0,42,0.00,,OVC021,0.00,441.00,VWS V14.01,2013-02-07 14:20:00,
2013-02-07 09:25:00,20.6,0.1,30.45,NNW,328,10.0,14.0,40,0.00,,OVC021,0.00,454.00,VWS V14.01,2013-02-07 14:25:00,
2013-02-07 09:26:00,20.4,-0.1,30.45,NW,321,9.0,12.0,40,0.00,,OVC021,0.00,441.00,VWS V14.01,2013-02-07 14:26:00,
2013-02-07 09:30:00,20.5,0.6,30.45,West,274,6.0,12.0,41,0.00,,OVC021,0.00,466.00,VWS V14.01,2013-02-07 14:30:00,
2013-02-07 09:31:00,20.8,0.8,30.45,NNW,332,6.0,11.0,41,0.00,,OVC021,0.00,487.00,VWS V14.01,2013-02-07 14:31:00,
2013-02-07 09:35:00,21.0,1.0,30.45,NW,321,5.0,11.0,41,0.00,,OVC021,0.00,489.00,VWS V14.01,2013-02-07 14:35:00,
2013-02-07 09:36:00,21.2,1.2,30.45,NW,326,9.0,11.0,41,0.00,,OVC021,0.00,464.00,VWS V14.01,2013-02-07 14:36:00,
2013-02-07 09:40:00,21.3,0.8,30.45,NNW,344,8.0,11.0,40,0.00,,OVC021,0.00,459.00,VWS V14.01,2013-02-07 14:40:00,
2013-02-07 09:41:00,21.1,0.6,30.45,NNW,343,5.0,13.0,40,0.00,,OVC021,0.00,434.00,VWS V14.01,2013-02-07 14:41:00,
2013-02-07 09:45:00,20.9,0.4,30.45,NNE,15,5.0,13.0,40,0.00,,OVC021,0.00,316.00,VWS V14.01,2013-02-07 14:45:00,
2013-02-07 09:46:00,21.1,0.6,30.45,NW,326,13.0,13.0,40,0.00,,OVC021,0.00,274.00,VWS V14.01,2013-02-07 14:46:00,
2013-02-07 09:50:00,20.9,-0.2,30.45,WNW,295,11.0,14.0,39,0.00,,OVC021,0.00,258.00,VWS V14.01,2013-02-07 14:50:00,
2013-02-07 09:51:00,20.6,-0.4,30.45,NW,316,8.0,12.0,39,0.00,,OVC021,0.00,279.00,VWS V14.01,2013-02-07 14:51:00,
2013-02-07 09:55:00,20.7,0.2,30.45,NNW,346,4.0,12.0,40,0.00,,OVC021,0.00,318.00,VWS V14.01,2013-02-07 14:55:00,
2013-02-07 09:56:00,20.6,0.1,30.45,NNW,327,10.0,13.0,40,0.00,,OVC021,0.00,455.00,VWS V14.01,2013-02-07 14:56:00,
2013-02-07 10:00:00,20.6,-0.4,30.45,NNW,331,8.0,13.0,39,0.00,,OVC021,0.00,457.00,VWS V14.01,2013-02-07 15:00:00,
2013-02-07 10:01:00,20.8,0.8,30.45,North,5,6.0,12.0,41,0.00,,OVC021,0.00,461.00,VWS V14.01,2013-02-07 15:01:00,
2013-02-07 10:05:00,21.0,1.0,30.45,NW,326,5.0,12.0,41,0.00,,OVC021,0.00,450.00,VWS V14.01,2013-02-07 15:05:00,
2013-02-07 10:06:00,21.3,0.8,30.45,NW,319,8.0,11.0,40,0.00,,OVC021,0.00,469.00,VWS V14.01,2013-02-07 15:06:00,
2013-02-07 10:10:00,21.3,0.2,30.46,NNW,329,4.0,11.0,39,0.00,,OVC021,0.00,461.00,VWS V14.01,2013-02-07 15:10:00,
2013-02-07 10:11:00,21.3,0.2,30.46,NW,323,10.0,11.0,39,0.00,,OVC021,0.00,482.00,VWS V14.01,2013-02-07 15:11:00,
2013-02-07 10:15:00,21.3,0.2,30.46,NNE,25,5.0,11.0,39,0.00,,OVC021,0.00,497.00,VWS V14.01,2013-02-07 15:15:00,
2013-02-07 10:16:00,21.6,1.0,30.46,NW,319,5.0,10.0,40,0.00,,OVC021,0.00,536.00,VWS V14.01,2013-02-07 15:16:00,
2013-02-07 10:20:00,21.8,1.2,30.46,NNW,345,2.0,10.0,40,0.00,,OVC021,0.00,541.00,VWS V14.01,2013-02-07 15:20:00,
2013-02-07 10:22:00,21.9,0.8,30.45,NNE,14,6.0,12.0,39,0.00,,OVC021,0.00,557.00,VWS V14.01,2013-02-07 15:22:00,
2013-02-07 10:25:00,21.8,1.2,30.46,North,355,8.0,12.0,40,0.00,,OVC021,0.00,534.00,VWS V14.01,2013-02-07 15:25:00,
2013-02-07 10:27:00,22.2,1.6,30.46,NNE,24,8.0,9.0,40,0.00,,OVC021,0.00,529.00,VWS V14.01,2013-02-07 15:27:00,
2013-02-07 10:30:00,22.3,1.7,30.46,NW,308,9.0,12.0,40,0.00,,OVC021,0.00,531.00,VWS V14.01,2013-02-07 15:30:00,
2013-02-07 10:32:00,21.9,0.8,30.46,North,5,5.0,15.0,39,0.00,,OVC021,0.00,524.00,VWS V14.01,2013-02-07 15:32:00,
2013-02-07 10:35:00,21.9,1.3,30.46,NNE,14,7.0,15.0,40,0.00,,OVC021,0.00,520.00,VWS V14.01,2013-02-07 15:35:00,
2013-02-07 10:37:00,22.1,2.0,30.46,NNE,13,4.0,10.0,41,0.00,,OVC021,0.00,513.00,VWS V14.01,2013-02-07 15:37:00,
2013-02-07 10:40:00,22.2,2.1,30.46,NW,306,6.0,10.0,41,0.00,,OVC021,0.00,504.00,VWS V14.01,2013-02-07 15:40:00,
2013-02-07 10:42:00,22.4,1.8,30.46,NNE,28,2.0,11.0,40,0.00,,OVC021,0.00,519.00,VWS V14.01,2013-02-07 15:42:00,
2013-02-07 10:45:00,22.4,1.8,30.46,North,355,6.0,11.0,40,0.00,,OVC021,0.00,517.00,VWS V14.01,2013-02-07 15:45:00,
2013-02-07 10:47:00,22.1,0.4,30.46,NW,313,5.0,13.0,38,0.00,,OVC021,0.00,522.00,VWS V14.01,2013-02-07 15:47:00,
2013-02-07 10:50:00,22.0,0.8,30.46,NNW,329,6.0,13.0,39,0.00,,OVC021,0.00,520.00,VWS V14.01,2013-02-07 15:50:00,
2013-02-07 10:52:00,22.4,1.8,30.46,NNE,19,5.0,9.0,40,0.00,,OVC021,0.00,515.00,VWS V14.01,2013-02-07 15:52:00,
2013-02-07 10:55:00,22.5,1.8,30.46,NW,310,9.0,11.0,40,0.00,,OVC021,0.00,524.00,VWS V14.01,2013-02-07 15:55:00,
2013-02-07 10:57:00,22.4,1.2,30.46,NNW,334,8.0,14.0,39,0.00,,OVC021,0.00,527.00,VWS V14.01,2013-02-07 15:57:00,
2013-02-07 11:00:00,22.4,1.2,30.46,NNW,331,9.0,14.0,39,0.00,,OVC021,0.00,529.00,VWS V14.01,2013-02-07 16:00:00,
2013-02-07 11:02:00,22.4,0.6,30.46,WNW,303,7.0,14.0,38,0.00,,OVC021,0.00,524.00,VWS V14.01,2013-02-07 16:02:00,
2013-02-07 11:05:00,22.3,0.6,30.46,NW,306,7.0,14.0,38,0.00,,OVC021,0.00,522.00,VWS V14.01,2013-02-07 16:05:00,
2013-02-07 11:08:00,23.1,1.8,30.46,NNE,15,12.0,12.0,39,0.00,,OVC021,0.00,531.00,VWS V14.01,2013-02-07 16:08:00,
2013-02-07 11:10:00,23.2,1.9,30.46,NNW,333,11.0,12.0,39,0.00,,OVC021,0.00,534.00,VWS V14.01,2013-02-07 16:10:00,
2013-02-07 11:13:00,23.2,1.4,30.46,North,9,7.0,12.0,38,0.00,,OVC021,0.00,541.00,VWS V14.01,2013-02-07 16:13:00,
2013-02-07 11:15:00,23.3,1.5,30.46,NNE,13,2.0,12.0,38,0.00,,OVC021,0.00,541.00,VWS V14.01,2013-02-07 16:15:00,
2013-02-07 11:18:00,23.3,0.9,30.46,North,5,6.0,13.0,37,0.00,,OVC021,0.00,545.00,VWS V14.01,2013-02-07 16:18:00,
2013-02-07 11:20:00,23.3,0.9,30.46,North,5,4.0,13.0,37,0.00,,OVC021,0.00,545.00,VWS V14.01,2013-02-07 16:20:00,
2013-02-07 11:23:00,23.2,0.8,30.45,NNE,13,6.0,11.0,37,0.00,,OVC021,0.00,548.00,VWS V14.01,2013-02-07 16:23:00,
2013-02-07 11:25:00,23.3,0.9,30.45,NNE,19,6.0,11.0,37,0.00,,OVC021,0.00,548.00,VWS V14.01,2013-02-07 16:25:00,
2013-02-07 11:28:00,23.6,1.2,30.46,NW,306,6.0,11.0,37,0.00,,OVC021,0.00,540.00,VWS V14.01,2013-02-07 16:28:00,
2013-02-07 11:30:00,23.6,1.2,30.46,NW,313,8.0,11.0,37,0.00,,OVC021,0.00,540.00,VWS V14.01,2013-02-07 16:30:00,
2013-02-07 11:33:00,23.3,0.3,30.46,NNW,329,6.0,13.0,36,0.00,,OVC021,0.00,540.00,VWS V14.01,2013-02-07 16:33:00,
2013-02-07 11:35:00,23.3,0.3,30.46,NNW,329,6.0,13.0,36,0.00,,OVC021,0.00,540.00,VWS V14.01,2013-02-07 16:35:00,
2013-02-07 11:39:00,23.5,0.5,30.46,NW,317,10.0,11.0,36,0.00,,OVC021,0.00,557.00,VWS V14.01,2013-02-07 16:39:00,
2013-02-07 11:40:00,23.4,-0.2,30.45,NNW,334,9.0,16.0,35,0.00,,OVC021,0.00,557.00,VWS V14.01,2013-02-07 16:40:00,
2013-02-07 11:44:00,23.6,0.0,30.45,NW,313,4.0,13.0,35,0.00,,OVC021,0.00,503.00,VWS V14.01,2013-02-07 16:44:00,
2013-02-07 11:45:00,23.6,1.2,30.45,WNW,287,12.0,13.0,37,0.00,,OVC021,0.00,503.00,VWS V14.01,2013-02-07 16:45:00,
2013-02-07 11:49:00,23.3,0.3,30.45,NNW,342,7.0,7.0,36,0.00,,OVC021,0.00,550.00,VWS V14.01,2013-02-07 16:49:00,
2013-02-07 11:50:00,23.3,-0.3,30.45,North,11,5.0,14.0,35,0.00,,OVC021,0.00,550.00,VWS V14.01,2013-02-07 16:50:00,
2013-02-07 11:54:00,23.5,-0.1,30.45,NNW,327,10.0,12.0,35,0.00,,OVC021,0.00,543.00,VWS V14.01,2013-02-07 16:54:00,
2013-02-07 11:55:00,23.5,0.5,30.45,NW,318,7.0,11.0,36,0.00,,OVC021,0.00,547.00,VWS V14.01,2013-02-07 16:55:00,
2013-02-07 11:59:00,23.4,-0.2,30.44,NNW,335,4.0,7.0,35,0.00,,OVC021,0.00,512.00,VWS V14.01,2013-02-07 16:59:00,
2013-02-07 12:00:00,23.5,-0.1,30.44,NW,317,6.0,13.0,35,0.00,,OVC021,0.00,547.00,VWS V14.01,2013-02-07 17:00:00,
2013-02-07 12:04:00,23.8,0.8,30.44,NW,310,5.0,10.0,36,0.00,,OVC021,0.00,541.00,VWS V14.01,2013-02-07 17:04:00,
2013-02-07 12:05:00,23.7,0.7,30.44,NNE,18,10.0,10.0,36,0.00,,OVC021,0.00,543.00,VWS V14.01,2013-02-07 17:05:00,
2013-02-07 12:09:00,24.1,0.4,30.44,NNW,337,6.0,11.0,35,0.00,,OVC021,0.00,541.00,VWS V14.01,2013-02-07 17:09:00,
2013-02-07 12:10:00,24.1,0.4,30.44,WNW,288,9.0,14.0,35,0.00,,OVC021,0.00,538.00,VWS V14.01,2013-02-07 17:10:00,
2013-02-07 12:14:00,24.4,0.7,30.43,North,9,7.0,13.0,35,0.00,,OVC021,0.00,527.00,VWS V14.01,2013-02-07 17:14:00,
2013-02-07 12:15:00,24.3,1.2,30.44,North,5,4.0,11.0,36,0.00,,OVC021,0.00,540.00,VWS V14.01,2013-02-07 17:15:00,
2013-02-07 12:20:00,24.2,-0.1,30.43,North,11,10.0,15.0,34,0.00,,OVC021,0.00,520.00,VWS V14.01,2013-02-07 17:20:00,
2013-02-07 12:25:00,24.2,0.5,30.43,North,360,8.0,9.0,35,0.00,,OVC021,0.00,512.00,VWS V14.01,2013-02-07 17:25:00,
2013-02-07 12:30:00,24.6,0.9,30.43,NNW,327,9.0,9.0,35,0.00,,OVC021,0.00,534.00,VWS V14.01,2013-02-07 17:30:00,
2013-02-07 12:35:00,24.9,0.5,30.43,North,11,3.0,9.0,34,0.00,,OVC021,0.00,531.00,VWS V14.01,2013-02-07 17:35:00,
2013-02-07 12:40:00,24.6,-0.4,30.43,NNE,16,4.0,8.0,33,0.00,,OVC021,0.00,473.00,VWS V14.01,2013-02-07 17:40:00,
2013-02-07 12:45:00,24.6,0.9,30.42,NW,311,5.0,8.0,35,0.00,,OVC021,0.00,287.00,VWS V14.01,2013-02-07 17:45:00,
2013-02-07 12:50:00,25.2,0.2,30.42,NW,326,7.0,11.0,33,0.00,,OVC021,0.00,98.00,VWS V14.01,2013-02-07 17:50:00,
2013-02-07 12:55:00,25.0,0.6,30.42,North,360,3.0,7.0,34,0.00,,OVC021,0.00,46.00,VWS V14.01,2013-02-07 17:55:00,
2013-02-07 13:00:00,25.1,0.7,30.42,North,5,3.0,9.0,34,0.00,,OVC021,0.00,44.00,VWS V14.01,2013-02-07 18:00:00,
2013-02-07 13:05:00,25.4,0.3,30.42,NNE,15,9.0,12.0,33,0.00,,OVC021,0.00,44.00,VWS V14.01,2013-02-07 18:05:00,
2013-02-07 13:10:00,25.4,1.0,30.42,NNE,13,4.0,11.0,34,0.00,,OVC021,0.00,51.00,VWS V14.01,2013-02-07 18:10:00,
2013-02-07 13:15:00,25.7,0.6,30.42,NW,326,8.0,11.0,33,0.00,,OVC021,0.00,47.00,VWS V14.01,2013-02-07 18:15:00,
2013-02-07 13:16:00,25.7,0.6,30.42,NW,311,5.0,12.0,33,0.00,,OVC021,0.00,46.00,VWS V14.01,2013-02-07 18:16:00,
2013-02-07 13:20:00,25.5,-0.2,30.42,NW,324,6.0,12.0,32,0.00,,OVC021,0.00,42.00,VWS V14.01,2013-02-07 18:20:00,
2013-02-07 13:21:00,25.5,0.4,30.42,NW,305,4.0,9.0,33,0.00,,OVC021,0.00,42.00,VWS V14.01,2013-02-07 18:21:00,
2013-02-07 13:25:00,25.4,0.3,30.42,NW,317,7.0,11.0,33,0.00,,OVC021,0.00,42.00,VWS V14.01,2013-02-07 18:25:00,
2013-02-07 13:26:00,25.5,0.4,30.42,NE,38,4.0,10.0,33,0.00,,OVC021,0.00,40.00,VWS V14.01,2013-02-07 18:26:00,
2013-02-07 13:30:00,25.7,0.6,30.42,NW,325,6.0,10.0,33,0.00,,OVC021,0.00,40.00,VWS V14.01,2013-02-07 18:30:00,
2013-02-07 13:31:00,25.9,0.1,30.42,NW,314,4.0,10.0,32,0.00,,OVC021,0.00,40.00,VWS V14.01,2013-02-07 18:31:00,
2013-02-07 13:35:00,25.8,0.0,30.42,NW,326,4.0,10.0,32,0.00,,OVC021,0.00,40.00,VWS V14.01,2013-02-07 18:35:00,
2013-02-07 13:36:00,25.7,0.6,30.42,NNE,31,6.0,6.0,33,0.00,,OVC021,0.00,40.00,VWS V14.01,2013-02-07 18:36:00,
2013-02-07 13:40:00,25.8,0.7,30.41,NW,313,6.0,8.0,33,0.00,,OVC021,0.00,40.00,VWS V14.01,2013-02-07 18:40:00,
2013-02-07 13:41:00,26.0,0.2,30.41,NW,313,8.0,10.0,32,0.00,,OVC021,0.00,40.00,VWS V14.01,2013-02-07 18:41:00,
2013-02-07 13:45:00,25.9,0.1,30.41,NW,323,7.0,10.0,32,0.00,,OVC021,0.00,40.00,VWS V14.01,2013-02-07 18:45:00,
2013-02-07 13:46:00,25.8,0.0,30.41,North,355,5.0,8.0,32,0.00,,OVC021,0.00,40.00,VWS V14.01,2013-02-07 18:46:00,
2013-02-07 13:50:00,25.8,0.7,30.41,WNW,301,7.0,10.0,33,0.00,,OVC021,0.00,40.00,VWS V14.01,2013-02-07 18:50:00,
2013-02-07 13:51:00,25.9,0.8,30.41,West,275,5.0,9.0,33,0.00,,OVC021,0.00,39.00,VWS V14.01,2013-02-07 18:51:00,
2013-02-07 13:55:00,25.9,0.8,30.41,NW,319,5.0,9.0,33,0.00,,OVC021,0.00,39.00,VWS V14.01,2013-02-07 18:55:00,
2013-02-07 13:57:00,26.0,0.2,30.41,West,267,4.0,7.0,32,0.00,,OVC021,0.00,39.00,VWS V14.01,2013-02-07 18:57:00,
2013-02-07 14:00:00,26.0,0.2,30.41,WNW,295,4.0,7.0,32,0.00,,OVC021,0.00,39.00,VWS V14.01,2013-02-07 19:00:00,
2013-02-07 14:02:00,26.3,0.5,30.41,NE,41,9.0,13.0,32,0.00,,OVC021,0.00,39.00,VWS V14.01,2013-02-07 19:02:00,
2013-02-07 14:05:00,26.2,0.4,30.41,North,5,5.0,14.0,32,0.00,,OVC021,0.00,37.00,VWS V14.01,2013-02-07 19:05:00,
2013-02-07 14:07:00,26.4,1.2,30.40,North,355,4.0,6.0,33,0.00,,OVC021,0.00,39.00,VWS V14.01,2013-02-07 19:07:00,
2013-02-07 14:10:00,26.6,1.4,30.40,NW,313,5.0,6.0,33,0.00,,OVC021,0.00,39.00,VWS V14.01,2013-02-07 19:10:00,
2013-02-07 14:12:00,26.5,0.0,30.40,North,355,7.0,8.0,31,0.00,,OVC021,0.00,39.00,VWS V14.01,2013-02-07 19:12:00,
2013-02-07 14:15:00,26.4,0.6,30.40,North,355,8.0,10.0,32,0.00,,OVC021,0.00,39.00,VWS V14.01,2013-02-07 19:15:00,
2013-02-07 14:17:00,26.5,0.6,30.40,NNE,29,4.0,8.0,32,0.00,,OVC021,0.00,39.00,VWS V14.01,2013-02-07 19:17:00,
2013-02-07 14:20:00,26.5,0.6,30.40,NE,34,5.0,8.0,32,0.00,,OVC021,0.00,37.00,VWS V14.01,2013-02-07 19:20:00,
2013-02-07 14:22:00,26.5,0.6,30.40,North,360,2.0,8.0,32,0.00,,OVC021,0.00,40.00,VWS V14.01,2013-02-07 19:22:00,
2013-02-07 14:25:00,26.5,0.6,30.40,North,355,2.0,8.0,32,0.00,,OVC021,0.00,42.00,VWS V14.01,2013-02-07 19:25:00,
2013-02-07 14:27:00,26.6,0.1,30.40,NNW,331,1.0,5.0,31,0.00,,OVC021,0.00,49.00,VWS V14.01,2013-02-07 19:27:00,
2013-02-07 14:30:00,26.6,0.1,30.40,NW,317,3.0,5.0,31,0.00,,OVC021,0.00,56.00,VWS V14.01,2013-02-07 19:30:00,
2013-02-07 14:32:00,26.7,0.8,30.40,NNE,25,4.0,9.0,32,0.00,,OVC021,0.00,95.00,VWS V14.01,2013-02-07 19:32:00,
2013-02-07 14:35:00,26.8,0.9,30.40,NNE,27,5.0,9.0,32,0.00,,OVC021,0.00,120.00,VWS V14.01,2013-02-07 19:35:00,
2013-02-07 14:37:00,26.8,0.2,30.40,NE,40,3.0,8.0,31,0.00,,OVC021,0.00,216.00,VWS V14.01,2013-02-07 19:37:00,
2013-02-07 14:40:00,26.8,0.2,30.40,ENE,61,4.0,8.0,31,0.00,,OVC021,0.00,195.00,VWS V14.01,2013-02-07 19:40:00,
2013-02-07 14:42:00,26.8,0.2,30.40,NE,47,4.0,6.0,31,0.00,,OVC021,0.00,244.00,VWS V14.01,2013-02-07 19:42:00,
2013-02-07 14:45:00,26.9,1.0,30.40,NE,50,6.0,6.0,32,0.00,,OVC021,0.00,244.00,VWS V14.01,2013-02-07 19:45:00,
2013-02-07 14:48:00,26.8,0.9,30.40,NNE,15,6.0,8.0,32,0.00,,OVC021,0.00,128.00,VWS V14.01,2013-02-07 19:48:00,
2013-02-07 14:50:00,26.8,0.2,30.40,NNE,23,3.0,8.0,31,0.00,,OVC021,0.00,128.00,VWS V14.01,2013-02-07 19:50:00,
2013-02-07 14:53:00,26.4,0.6,30.40,North,355,4.0,8.0,32,0.00,,OVC021,0.00,155.00,VWS V14.01,2013-02-07 19:53:00,
2013-02-07 14:55:00,26.4,0.6,30.40,NNW,340,4.0,8.0,32,0.00,,OVC021,0.00,155.00,VWS V14.01,2013-02-07 19:55:00,
2013-02-07 14:58:00,26.3,0.5,30.40,NNE,18,1.0,8.0,32,0.00,,OVC021,0.00,167.00,VWS V14.01,2013-02-07 19:58:00,
2013-02-07 15:00:00,26.3,0.5,30.40,NNE,19,1.0,8.0,32,0.00,,OVC021,0.00,167.00,VWS V14.01,2013-02-07 20:00:00,
2013-02-07 15:03:00,26.0,-0.5,30.40,NNE,22,0.0,8.0,31,0.00,,OVC021,0.00,176.00,VWS V14.01,2013-02-07 20:03:00,
2013-02-07 15:05:00,26.0,-0.5,30.40,NNE,22,1.0,8.0,31,0.00,,OVC021,0.00,176.00,VWS V14.01,2013-02-07 20:05:00,
2013-02-07 15:08:00,26.1,0.9,30.40,ENE,74,1.0,5.0,33,0.00,,OVC021,0.00,153.00,VWS V14.01,2013-02-07 20:08:00,
2013-02-07 15:10:00,26.1,0.9,30.40,ENE,74,1.0,5.0,33,0.00,,OVC021,0.00,153.00,VWS V14.01,2013-02-07 20:10:00,
2013-02-07 15:13:00,26.2,0.4,30.41,North,355,2.0,7.0,32,0.00,,OVC021,0.00,142.00,VWS V14.01,2013-02-07 20:13:00,
2013-02-07 15:15:00,26.2,0.4,30.41,North,355,2.0,7.0,32,0.00,,OVC021,0.00,142.00,VWS V14.01,2013-02-07 20:15:00,
2013-02-07 15:18:00,26.3,0.5,30.41,North,355,0.0,2.0,32,0.00,,OVC021,0.00,151.00,VWS V14.01,2013-02-07 20:18:00,
2013-02-07 15:20:00,26.3,0.5,30.41,North,355,0.0,2.0,32,0.00,,OVC021,0.00,151.00,VWS V14.01,2013-02-07 20:20:00,
2013-02-07 15:23:00,26.3,0.5,30.41,NNE,29,6.0,6.0,32,0.00,,OVC021,0.00,149.00,VWS V14.01,2013-02-07 20:23:00,
2013-02-07 15:25:00,26.3,0.5,30.41,NNE,13,6.0,8.0,32,0.00,,OVC021,0.00,144.00,VWS V14.01,2013-02-07 20:25:00,
2013-02-07 15:28:00,26.4,0.6,30.41,NNE,23,2.0,2.0,32,0.00,,OVC021,0.00,237.00,VWS V14.01,2013-02-07 20:28:00,
2013-02-07 15:30:00,26.4,0.6,30.41,NNE,23,2.0,6.0,32,0.00,,OVC021,0.00,248.00,VWS V14.01,2013-02-07 20:30:00,
2013-02-07 15:33:00,26.7,0.8,30.41,NNW,329,4.0,5.0,32,0.00,,OVC021,0.00,239.00,VWS V14.01,2013-02-07 20:33:00,
2013-02-07 15:35:00,26.6,0.7,30.41,NNW,332,5.0,6.0,32,0.00,,OVC021,0.00,239.00,VWS V14.01,2013-02-07 20:35:00,
2013-02-07 15:38:00,26.9,1.0,30.41,NNE,28,5.0,5.0,32,0.00,,OVC021,0.00,250.00,VWS V14.01,2013-02-07 20:38:00,
2013-02-07 15:40:00,26.9,1.0,30.41,North,351,5.0,6.0,32,0.00,,OVC021,0.00,250.00,VWS V14.01,2013-02-07 20:40:00,
2013-02-07 15:44:00,27.0,0.4,30.41,ENE,63,2.0,4.0,31,0.00,,OVC021,0.00,232.00,VWS V14.01,2013-02-07 20:44:00,
2013-02-07 15:45:00,27.0,0.4,30.41,NE,40,4.0,5.0,31,0.00,,OVC021,0.00,232.00,VWS V14.01,2013-02-07 20:45:00,
2013-02-07 15:49:00,26.6,0.7,30.41,ENE,57,3.0,3.0,32,0.00,,OVC021,0.00,193.00,VWS V14.01,2013-02-07 20:49:00,
2013-02-07 15:50:00,26.6,0.1,30.41,ENE,71,3.0,5.0,31,0.00,,OVC021,0.00,193.00,VWS V14.01,2013-02-07 20:50:00,
2013-02-07 15:54:00,26.5,0.0,30.41,North,9,2.0,2.0,31,0.00,,OVC021,0.00,130.00,VWS V14.01,2013-02-07 20:54:00,
2013-02-07 15:55:00,26.5,0.0,30.41,NE,34,0.0,6.0,31,0.00,,OVC021,0.00,128.00,VWS V14.01,2013-02-07 20:55:00,
2013-02-07 15:59:00,26.4,-0.1,30.40,NE,51,3.0,3.0,31,0.00,,OVC021,0.00,105.00,VWS V14.01,2013-02-07 20:59:00,
2013-02-07 16:00:00,26.4,-0.1,30.40,NE,51,2.0,4.0,31,0.00,,OVC021,0.00,114.00,VWS V14.01,2013-02-07 21:00:00,
2013-02-07 16:04:00,26.2,0.4,30.40,NNE,19,4.0,5.0,32,0.00,,OVC021,0.00,72.00,VWS V14.01,2013-02-07 21:04:00,
2013-02-07 16:05:00,26.3,0.5,30.40,NE,51,3.0,7.0,32,0.00,,OVC021,0.00,74.00,VWS V14.01,2013-02-07 21:05:00,
2013-02-07 16:09:00,26.0,0.2,30.40,NE,49,2.0,3.0,32,0.00,,OVC021,0.00,63.00,VWS V14.01,2013-02-07 21:09:00,
2013-02-07 16:10:00,26.0,0.2,30.40,NE,44,2.0,6.0,32,0.00,,OVC021,0.00,63.00,VWS V14.01,2013-02-07 21:10:00,
2013-02-07 16:14:00,25.8,0.0,30.40,NNE,17,2.0,4.0,32,0.00,,OVC021,0.00,56.00,VWS V14.01,2013-02-07 21:14:00,
2013-02-07 16:15:00,25.8,0.0,30.40,NNE,23,3.0,5.0,32,0.00,,OVC021,0.00,58.00,VWS V14.01,2013-02-07 21:15:00,
2013-02-07 16:19:00,25.8,0.0,30.41,NNE,17,2.0,3.0,32,0.00,,OVC021,0.00,47.00,VWS V14.01,2013-02-07 21:19:00,
2013-02-07 16:20:00,25.7,-0.1,30.41,NNE,17,0.0,4.0,32,0.00,,OVC021,0.00,49.00,VWS V14.01,2013-02-07 21:20:00,
2013-02-07 16:25:00,25.7,-0.1,30.41,NNE,17,3.0,4.0,32,0.00,,OVC021,0.00,35.00,VWS V14.01,2013-02-07 21:25:00,
2013-02-07 16:30:00,25.7,-0.1,30.41,NNE,17,2.0,4.0,32,0.00,,OVC021,0.00,26.00,VWS V14.01,2013-02-07 21:30:00,
2013-02-07 16:35:00,25.7,0.6,30.41,NNE,22,3.0,4.0,33,0.00,,OVC021,0.00,23.00,VWS V14.01,2013-02-07 21:35:00,
2013-02-07 16:40:00,25.6,-0.2,30.41,NNE,12,3.0,5.0,32,0.00,,OVC021,0.00,19.00,VWS V14.01,2013-02-07 21:40:00,
2013-02-07 16:45:00,25.5,0.4,30.41,NE,36,4.0,6.0,33,0.00,,OVC021,0.00,16.00,VWS V14.01,2013-02-07 21:45:00,
2013-02-07 16:50:00,25.4,0.3,30.41,NNE,28,2.0,6.0,33,0.00,,OVC021,0.00,12.00,VWS V14.01,2013-02-07 21:50:00,
2013-02-07 16:55:00,25.3,0.2,30.41,NE,38,1.0,4.0,33,0.00,,OVC021,0.00,7.00,VWS V14.01,2013-02-07 21:55:00,
2013-02-07 17:00:00,25.3,0.2,30.41,NE,44,0.0,5.0,33,0.00,,OVC021,0.00,5.00,VWS V14.01,2013-02-07 22:00:00,
2013-02-07 17:05:00,25.1,0.1,30.41,ENE,65,3.0,6.0,33,0.00,,OVC021,0.00,0.00,VWS V14.01,2013-02-07 22:05:00,
2013-02-07 17:10:00,25.1,0.1,30.41,ENE,63,2.0,6.0,33,0.00,,OVC021,0.00,0.00,VWS V14.01,2013-02-07 22:10:00,
2013-02-07 17:11:00,25.0,0.0,30.41,ENE,65,5.0,5.0,33,0.00,,OVC021,0.00,0.00,VWS V14.01,2013-02-07 22:11:00,
2013-02-07 17:15:00,24.9,-0.1,30.41,ENE,69,1.0,5.0,33,0.00,,OVC021,0.00,0.00,VWS V14.01,2013-02-07 22:15:00,
2013-02-07 17:16:00,24.9,-0.1,30.41,ENE,61,2.0,4.0,33,0.00,,OVC021,0.00,0.00,VWS V14.01,2013-02-07 22:16:00,
2013-02-07 17:20:00,24.8,-0.2,30.41,ENE,62,2.0,4.0,33,0.00,,OVC021,0.00,0.00,VWS V14.01,2013-02-07 22:20:00,
2013-02-07 17:21:00,24.8,-0.2,30.41,ENE,66,3.0,3.0,33,0.00,,OVC021,0.00,0.00,VWS V14.01,2013-02-07 22:21:00,
2013-02-07 17:25:00,24.7,0.3,30.41,ENE,66,2.0,3.0,34,0.00,,OVC021,0.00,0.00,VWS V14.01,2013-02-07 22:25:00,
2013-02-07 17:26:00,24.7,-0.3,30.41,East,98,2.0,5.0,33,0.00,,OVC021,0.00,0.00,VWS V14.01,2013-02-07 22:26:00,
2013-02-07 17:30:00,24.7,0.3,30.41,East,95,2.0,5.0,34,0.00,,OVC021,0.00,0.00,VWS V14.01,2013-02-07 22:30:00,
2013-02-07 17:31:00,24.7,-0.3,30.41,East,80,3.0,5.0,33,0.00,,OVC021,0.00,0.00,VWS V14.01,2013-02-07 22:31:00,
2013-02-07 17:35:00,24.7,0.3,30.41,ENE,60,4.0,5.0,34,0.00,,OVC021,0.00,0.00,VWS V14.01,2013-02-07 22:35:00,
2013-02-07 17:36:00,24.7,-0.3,30.41,ENE,61,0.0,4.0,33,0.00,,OVC021,0.00,0.00,VWS V14.01,2013-02-07 22:36:00,
2013-02-07 17:40:00,24.7,0.3,30.41,ENE,61,0.0,4.0,34,0.00,,OVC021,0.00,0.00,VWS V14.01,2013-02-07 22:40:00,
2013-02-07 17:41:00,24.7,0.3,30.41,ENE,61,2.0,3.0,34,0.00,,OVC021,0.00,0.00,VWS V14.01,2013-02-07 22:41:00,
2013-02-07 17:45:00,24.7,0.3,30.42,ENE,78,4.0,5.0,34,0.00,,OVC021,0.00,0.00,VWS V14.01,2013-02-07 22:45:00,
2013-02-07 17:46:00,24.7,0.3,30.42,East,81,3.0,5.0,34,0.00,,OVC021,0.00,0.00,VWS V14.01,2013-02-07 22:46:00,
2013-02-07 17:50:00,24.7,0.9,30.42,ENE,76,4.0,5.0,35,0.00,,OVC021,0.00,0.00,VWS V14.01,2013-02-07 22:50:00,
2013-02-07 17:51:00,24.7,0.3,30.42,East,87,3.0,5.0,34,0.00,,OVC021,0.00,0.00,VWS V14.01,2013-02-07 22:51:00,
2013-02-07 17:55:00,24.6,0.9,30.42,East,86,2.0,5.0,35,0.00,,OVC021,0.00,0.00,VWS V14.01,2013-02-07 22:55:00,
2013-02-07 17:56:00,24.6,0.2,30.42,East,79,2.0,5.0,34,0.00,,OVC021,0.00,0.00,VWS V14.01,2013-02-07 22:56:00,
2013-02-07 18:00:00,24.6,0.2,30.42,East,79,3.0,5.0,34,0.00,,OVC021,0.00,0.00,VWS V14.01,2013-02-07 23:00:00,
2013-02-07 18:02:00,24.6,0.2,30.43,East,88,4.0,5.0,34,0.00,,OVC021,0.00,0.00,VWS V14.01,2013-02-07 23:02:00,
2013-02-07 18:05:00,24.6,-0.4,30.43,ENE,77,3.0,5.0,33,0.00,,OVC021,0.00,0.00,VWS V14.01,2013-02-07 23:05:00,
2013-02-07 18:07:00,24.6,0.9,30.43,East,90,7.0,7.0,35,0.00,,OVC021,0.00,0.00,VWS V14.01,2013-02-07 23:07:00,
2013-02-07 18:10:00,24.6,-0.4,30.43,East,88,4.0,7.0,33,0.00,,OVC021,0.00,0.00,VWS V14.01,2013-02-07 23:10:00,
2013-02-07 18:12:00,24.6,-0.4,30.43,ENE,76,2.0,7.0,33,0.00,,OVC021,0.00,0.00,VWS V14.01,2013-02-07 23:12:00,
2013-02-07 18:15:00,24.5,-0.5,30.43,East,88,3.0,7.0,33,0.00,,OVC021,0.00,0.00,VWS V14.01,2013-02-07 23:15:00,
2013-02-07 18:17:00,24.5,0.2,30.42,ENE,69,3.0,5.0,34,0.00,,OVC021,0.00,0.00,VWS V14.01,2013-02-07 23:17:00,
2013-02-07 18:20:00,24.5,0.2,30.43,ENE,71,4.0,5.0,34,0.00,,OVC021,0.00,0.00,VWS V14.01,2013-02-07 23:20:00,
2013-02-07 18:22:00,24.4,0.1,30.43,East,79,3.0,6.0,34,0.00,,OVC021,0.00,0.00,VWS V14.01,2013-02-07 23:22:00,
2013-02-07 18:25:00,24.4,-0.6,30.43,East,79,3.0,6.0,33,0.00,,OVC021,0.00,0.00,VWS V14.01,2013-02-07 23:25:00,
2013-02-07 18:27:00,24.4,0.1,30.43,East,84,4.0,5.0,34,0.00,,OVC021,0.00,0.00,VWS V14.01,2013-02-07 23:27:00,
2013-02-07 18:30:00,24.4,0.1,30.43,East,81,3.0,5.0,34,0.00,,OVC021,0.00,0.00,VWS V14.01,2013-02-07 23:30:00,
2013-02-07 18:32:00,24.4,0.1,30.43,East,96,4.0,5.0,34,0.00,,OVC021,0.00,0.00,VWS V14.01,2013-02-07 23:32:00,
2013-02-07 18:35:00,24.4,0.1,30.43,ENE,67,4.0,6.0,34,0.00,,OVC021,0.00,0.00,VWS V14.01,2013-02-07 23:35:00,
2013-02-07 18:37:00,24.3,-0.6,30.44,East,87,3.0,6.0,33,0.00,,OVC021,0.00,0.00,VWS V14.01,2013-02-07 23:37:00,
2013-02-07 18:40:00,24.3,0.0,30.44,East,91,5.0,6.0,34,0.00,,OVC021,0.00,0.00,VWS V14.01,2013-02-07 23:40:00,
2013-02-07 18:43:00,24.3,-0.6,30.44,East,96,5.0,6.0,33,0.00,,OVC021,0.00,0.00,VWS V14.01,2013-02-07 23:43:00,
2013-02-07 18:45:00,24.3,-0.6,30.44,East,95,2.0,6.0,33,0.00,,OVC021,0.00,0.00,VWS V14.01,2013-02-07 23:45:00,
2013-02-07 18:48:00,24.3,-0.6,30.44,East,92,2.0,6.0,33,0.00,,OVC021,0.00,0.00,VWS V14.01,2013-02-07 23:48:00,
2013-02-07 18:50:00,24.3,0.0,30.44,East,79,4.0,6.0,34,0.00,,OVC021,0.00,0.00,VWS V14.01,2013-02-07 23:50:00,
2013-02-07 18:53:00,24.3,-1.3,30.44,East,81,4.0,6.0,32,0.00,,OVC021,0.00,0.00,VWS V14.01,2013-02-07 23:53:00,
2013-02-07 18:55:00,24.3,-1.3,30.44,East,81,3.0,6.0,32,0.00,,OVC021,0.00,0.00,VWS V14.01,2013-02-07 23:55:00,
2013-02-07 18:58:00,24.2,-0.7,30.44,East,96,2.0,5.0,33,0.00,,OVC021,0.00,0.00,VWS V14.01,2013-02-07 23:58:00,
2013-02-07 19:00:00,24.2,-0.7,30.44,East,96,4.0,5.0,33,0.00,,OVC021,0.00,0.00,VWS V14.01,2013-02-08 00:00:00,
2013-02-07 19:05:00,24.3,-1.3,30.44,East,96,5.0,5.0,32,0.00,,OVC021,0.00,0.00,VWS V14.01,2013-02-08 00:05:00,
2013-02-07 19:10:00,24.2,-1.4,30.44,ESE,102,6.0,6.0,32,0.00,,OVC021,0.00,0.00,VWS V14.01,2013-02-08 00:10:00,
2013-02-07 19:15:00,24.2,-1.4,30.44,East,94,6.0,7.0,32,0.00,,OVC021,0.00,0.00,VWS V14.01,2013-02-08 00:15:00,
2013-02-07 19:20:00,24.2,-0.7,30.44,East,92,6.0,6.0,33,0.00,,OVC021,0.00,0.00,VWS V14.01,2013-02-08 00:20:00,
2013-02-07 19:25:00,24.2,-2.1,30.44,East,101,4.0,6.0,31,0.00,,OVC021,0.00,0.00,VWS V14.01,2013-02-08 00:25:00,
2013-02-07 19:30:00,24.1,-1.5,30.43,East,92,4.0,6.0,32,0.00,,OVC021,0.00,0.00,VWS V14.01,2013-02-08 00:30:00,
2013-02-07 19:35:00,24.0,-1.6,30.43,East,85,4.0,7.0,32,0.00,,OVC021,0.00,0.00,VWS V14.01,2013-02-08 00:35:00,
2013-02-07 19:40:00,24.0,-2.2,30.44,East,86,4.0,8.0,31,0.00,,OVC021,0.00,0.00,VWS V14.01,2013-02-08 00:40:00,
2013-02-07 19:45:00,23.8,-2.4,30.44,East,101,2.0,6.0,31,0.00,,OVC021,0.00,0.00,VWS V14.01,2013-02-08 00:45:00,
2013-02-07 19:50:00,23.7,-1.8,30.44,ENE,68,5.0,5.0,32,0.00,,OVC021,0.00,0.00,VWS V14.01,2013-02-08 00:50:00,
2013-02-07 19:55:00,23.5,-1.4,30.44,East,88,2.0,5.0,33,0.00,,OVC021,0.00,0.00,VWS V14.01,2013-02-08 00:55:00,
2013-02-07 20:00:00,23.5,-1.4,30.44,East,84,3.0,6.0,33,0.00,,OVC021,0.00,0.00,VWS V14.01,2013-02-08 01:00:00,
2013-02-07 20:05:00,23.3,-1.5,30.44,East,88,3.0,5.0,33,0.00,,OVC021,0.00,0.00,VWS V14.01,2013-02-08 01:05:00,
2013-02-07 20:10:00,23.1,-1.1,30.43,East,84,3.0,7.0,34,0.00,,OVC021,0.00,0.00,VWS V14.01,2013-02-08 01:10:00,
2013-02-07 20:15:00,23.0,-1.2,30.43,East,84,4.0,6.0,34,0.00,,OVC021,0.00,0.00,VWS V14.01,2013-02-08 01:15:00,
2013-02-07 20:20:00,22.9,-1.3,30.43,East,93,4.0,6.0,34,0.00,,OVC021,0.00,0.00,VWS V14.01,2013-02-08 01:20:00,
2013-02-07 20:25:00,22.9,-1.3,30.44,ENE,69,5.0,6.0,34,0.00,,OVC021,0.00,0.00,VWS V14.01,2013-02-08 01:25:00,
2013-02-07 20:30:00,22.9,-1.3,30.43,East,79,3.0,6.0,34,0.00,,OVC021,0.00,0.00,VWS V14.01,2013-02-08 01:30:00,
2013-02-07 20:35:00,22.8,-1.4,30.43,ENE,78,3.0,4.0,34,0.00,,OVC021,0.00,0.00,VWS V14.01,2013-02-08 01:35:00,
2013-02-07 20:40:00,22.9,-0.6,30.44,East,83,3.0,3.0,35,0.00,,OVC021,0.00,0.00,VWS V14.01,2013-02-08 01:40:00,
2013-02-07 20:45:00,22.9,-0.1,30.44,East,83,2.0,4.0,36,0.00,,OVC021,0.00,0.00,VWS V14.01,2013-02-08 01:45:00,
2013-02-07 20:50:00,23.0,-0.6,30.44,East,83,2.0,4.0,35,0.00,,OVC021,0.00,0.00,VWS V14.01,2013-02-08 01:50:00,
2013-02-07 20:55:00,23.0,-1.2,30.44,East,80,3.0,5.0,34,0.00,,OVC021,0.00,0.00,VWS V14.01,2013-02-08 01:55:00,
2013-02-07 21:00:00,23.1,-0.5,30.44,East,87,3.0,4.0,35,0.00,,OVC021,0.00,0.00,VWS V14.01,2013-02-08 02:00:00,
2013-02-07 21:05:00,23.1,-1.1,30.44,ENE,64,3.0,6.0,34,0.00,,OVC021,0.00,0.00,VWS V14.01,2013-02-08 02:05:00,
2013-02-07 21:10:00,23.1,-1.1,30.44,East,84,3.0,5.0,34,0.00,,OVC021,0.00,0.00,VWS V14.01,2013-02-08 02:10:00,
2013-02-07 21:15:00,23.2,-1.0,30.44,East,82,2.0,6.0,34,0.00,,OVC021,0.00,0.00,VWS V14.01,2013-02-08 02:15:00,
2013-02-07 21:20:00,23.1,-0.5,30.44,East,86,2.0,6.0,35,0.00,,OVC021,0.00,0.00,VWS V14.01,2013-02-08 02:20:00,
2013-02-07 21:25:00,23.1,0.1,30.43,ENE,68,4.0,5.0,36,0.00,,OVC021,0.00,0.00,VWS V14.01,2013-02-08 02:25:00,
2013-02-07 21:30:00,23.1,0.1,30.44,East,85,3.0,7.0,36,0.00,,OVC021,0.00,0.00,VWS V14.01,2013-02-08 02:30:00,
2013-02-07 21:35:00,23.2,0.8,30.43,ENE,63,3.0,5.0,37,0.00,,OVC021,0.00,0.00,VWS V14.01,2013-02-08 02:35:00,
2013-02-07 21:40:00,23.2,0.8,30.43,East,86,1.0,6.0,37,0.00,,OVC021,0.00,0.00,VWS V14.01,2013-02-08 02:40:00,
2013-02-07 21:45:00,23.2,0.8,30.43,ENE,62,4.0,6.0,37,0.00,,OVC021,0.00,0.00,VWS V14.01,2013-02-08 02:45:00,
2013-02-07 21:50:00,23.2,0.8,30.43,East,80,3.0,7.0,37,0.00,,OVC021,0.00,0.00,VWS V14.01,2013-02-08 02:50:00,
2013-02-07 21:55:00,23.3,1.5,30.43,East,82,3.0,4.0,38,0.00,,OVC021,0.00,0.00,VWS V14.01,2013-02-08 02:55:00,
2013-02-07 22:00:00,23.3,2.0,30.43,ESE,107,4.0,5.0,39,0.00,,OVC021,0.00,0.00,VWS V14.01,2013-02-08 03:00:00,
2013-02-07 22:05:00,23.3,1.5,30.43,ENE,67,5.0,6.0,38,0.00,,OVC021,0.00,0.00,VWS V14.01,2013-02-08 03:05:00,
2013-02-07 22:10:00,23.3,2.0,30.42,ENE,71,2.0,5.0,39,0.00,,OVC021,0.00,0.00,VWS V14.01,2013-02-08 03:10:00,
2013-02-07 22:15:00,23.3,2.0,30.42,East,86,3.0,4.0,39,0.00,,OVC021,0.00,0.00,VWS V14.01,2013-02-08 03:15:00,
2013-02-07 22:20:00,23.3,2.6,30.42,East,92,2.0,5.0,40,0.00,,OVC021,0.00,0.00,VWS V14.01,2013-02-08 03:20:00,
2013-02-07 22:25:00,23.4,3.2,30.42,East,95,2.0,4.0,41,0.00,,OVC021,0.00,0.00,VWS V14.01,2013-02-08 03:25:00,
2013-02-07 22:30:00,23.4,3.2,30.42,East,95,2.0,5.0,41,0.00,,OVC021,0.00,0.00,VWS V14.01,2013-02-08 03:30:00,
2013-02-07 22:35:00,23.4,3.2,30.42,East,100,1.0,5.0,41,0.00,,OVC021,0.00,0.00,VWS V14.01,2013-02-08 03:35:00,
2013-02-07 22:40:00,23.5,3.3,30.42,East,97,1.0,5.0,41,0.00,,OVC021,0.00,0.00,VWS V14.01,2013-02-08 03:40:00,
2013-02-07 22:45:00,23.5,3.8,30.42,East,97,2.0,4.0,42,0.00,,OVC021,0.00,0.00,VWS V14.01,2013-02-08 03:45:00,
2013-02-07 22:50:00,23.5,4.8,30.42,East,97,2.0,4.0,44,0.00,,OVC021,0.00,0.00,VWS V14.01,2013-02-08 03:50:00,
2013-02-07 22:55:00,23.6,4.4,30.42,East,98,1.0,4.0,43,0.00,,OVC021,0.00,0.00,VWS V14.01,2013-02-08 03:55:00,
2013-02-07 23:00:00,23.6,4.9,30.42,East,96,0.0,2.0,44,0.00,,OVC021,0.00,0.00,VWS V14.01,2013-02-08 04:00:00,
2013-02-07 23:05:00,23.6,4.9,30.42,East,96,1.0,4.0,44,0.00,,OVC021,0.00,0.00,VWS V14.01,2013-02-08 04:05:00,
2013-02-07 23:10:00,23.7,5.5,30.42,East,98,1.0,4.0,45,0.00,,OVC021,0.00,0.00,VWS V14.01,2013-02-08 04:10:00,
2013-02-07 23:15:00,23.7,6.0,30.42,East,97,1.0,2.0,46,0.00,,OVC021,0.00,0.00,VWS V14.01,2013-02-08 04:15:00,
2013-02-07 23:20:00,23.7,6.0,30.42,East,97,0.0,2.0,46,0.00,,OVC021,0.00,0.00,VWS V14.01,2013-02-08 04:20:00,
2013-02-07 23:25:00,23.7,6.0,30.42,East,98,0.0,0.0,46,0.00,,OVC021,0.00,0.00,VWS V14.01,2013-02-08 04:25:00,
2013-02-07 23:30:00,23.7,6.0,30.43,East,97,0.0,1.0,46,0.00,,OVC021,0.00,0.00,VWS V14.01,2013-02-08 04:30:00,
2013-02-07 23:35:00,23.7,6.0,30.43,East,97,0.0,0.0,46,0.00,,OVC021,0.00,0.00,VWS V14.01,2013-02-08 04:35:00,
2013-02-07 23:40:00,23.8,6.1,30.43,East,98,0.0,0.0,46,0.00,,OVC021,0.00,0.00,VWS V14.01,2013-02-08 04:40:00,
2013-02-07 23:45:00,23.8,6.5,30.42,East,97,2.0,2.0,47,0.00,,OVC021,0.00,0.00,VWS V14.01,2013-02-08 04:45:00,
2013-02-07 23:50:00,23.8,6.5,30.42,East,97,0.0,2.0,47,0.00,,OVC021,0.00,0.00,VWS V14.01,2013-02-08 04:50:00,
2013-02-07 23:55:00,23.8,7.0,30.42,East,98,1.0,2.0,48,0.00,,OVC021,0.00,0.00,VWS V14.01,2013-02-08 04:55:00,